CGMAE CYKF-CYKF

Flight info

Callsign CGMAE
Flight time 0h 26m
Altitude 4000
Route DCT
Aircraft C208

Departure

Time 2026-05-06 00:19
Airport Region of Waterloo International Airport (CYKF)

Arrival

Time 2026-05-06 00:46
Airport Region of Waterloo International Airport (CYKF)
Time Latitude Longitude Altitude Speed Heading
2026-05-06 00:19 43.61390 -80.55233 4516 ft 169 kts 21°
2026-05-06 00:20 43.62047 -80.54825 4518 ft 169 kts 18°
2026-05-06 00:20 43.63124 -80.54184 4511 ft 169 kts 19°
2026-05-06 00:20 43.64209 -80.53529 4509 ft 169 kts 19°
2026-05-06 00:21 43.65301 -80.52873 4382 ft 176 kts 19°
2026-05-06 00:21 43.66445 -80.52195 4182 ft 181 kts 20°
2026-05-06 00:21 43.67447 -80.51145 4007 ft 183 kts 53°
2026-05-06 00:21 43.67765 -80.49561 3996 ft 167 kts 90°
2026-05-06 00:22 43.67489 -80.48076 3999 ft 156 kts 110°
2026-05-06 00:22 43.67138 -80.46661 3996 ft 151 kts 109°
2026-05-06 00:22 43.66790 -80.45261 4006 ft 159 kts 109°
2026-05-06 00:22 43.66407 -80.43789 4021 ft 165 kts 112°
2026-05-06 00:23 43.66024 -80.42306 4021 ft 168 kts 109°
2026-05-06 00:23 43.65640 -80.40770 4021 ft 170 kts 109°
2026-05-06 00:23 43.65246 -80.39224 4016 ft 171 kts 110°
2026-05-06 00:23 43.64850 -80.37676 4018 ft 172 kts 109°
2026-05-06 00:24 43.64452 -80.36116 4018 ft 172 kts 110°
2026-05-06 00:24 43.64053 -80.34550 4017 ft 172 kts 109°
2026-05-06 00:24 43.63656 -80.32991 4021 ft 174 kts 109°
2026-05-06 00:24 43.63248 -80.31401 4014 ft 175 kts 110°
2026-05-06 00:25 43.62835 -80.29805 4017 ft 176 kts 109°
2026-05-06 00:25 43.62437 -80.28232 4020 ft 176 kts 109°
2026-05-06 00:25 43.62027 -80.26633 4017 ft 177 kts 109°
2026-05-06 00:25 43.61617 -80.25036 4019 ft 177 kts 109°
2026-05-06 00:26 43.61206 -80.23435 4019 ft 177 kts 109°
2026-05-06 00:26 43.60621 -80.21974 4009 ft 176 kts 135°
2026-05-06 00:26 43.59625 -80.20994 4014 ft 172 kts 158°
2026-05-06 00:26 43.58526 -80.20322 4017 ft 173 kts 158°
2026-05-06 00:27 43.57447 -80.19628 4018 ft 173 kts 158°
2026-05-06 00:27 43.56336 -80.18923 4021 ft 173 kts 159°
2026-05-06 00:27 43.55233 -80.18292 4010 ft 172 kts 169°
2026-05-06 00:27 43.54077 -80.18284 3948 ft 164 kts 195°
2026-05-06 00:28 43.53033 -80.18871 3721 ft 161 kts 218°
2026-05-06 00:28 43.52242 -80.19937 3523 ft 157 kts 238°
2026-05-06 00:28 43.51769 -80.21257 3323 ft 156 kts 249°
2026-05-06 00:28 43.51299 -80.22610 3198 ft 154 kts 247°
2026-05-06 00:29 43.50866 -80.23937 3078 ft 145 kts 248°
2026-05-06 00:29 43.50440 -80.25174 2946 ft 143 kts 247°
2026-05-06 00:29 43.50028 -80.26421 2746 ft 143 kts 248°
2026-05-06 00:29 43.49625 -80.27605 2549 ft 132 kts 247°
2026-05-06 00:30 43.49253 -80.28724 2382 ft 125 kts 246°
2026-05-06 00:30 43.48937 -80.29643 2227 ft 96 kts 246°
2026-05-06 00:30 43.48651 -80.30485 2098 ft 96 kts 248°
2026-05-06 00:30 43.48379 -80.31307 1944 ft 96 kts 246°
2026-05-06 00:31 43.48097 -80.32147 1809 ft 96 kts 246°
2026-05-06 00:31 43.47818 -80.32976 1672 ft 94 kts 246°
2026-05-06 00:31 43.47543 -80.33790 1544 ft 97 kts 245°
2026-05-06 00:31 43.47251 -80.34653 1412 ft 102 kts 245°
2026-05-06 00:32 43.46948 -80.35554 1264 ft 111 kts 245°
2026-05-06 00:32 43.46594 -80.36585 1532 ft 120 kts 244°
2026-05-06 00:32 43.46222 -80.37643 1841 ft 123 kts 244°
2026-05-06 00:32 43.45844 -80.38718 2141 ft 125 kts 245°
2026-05-06 00:33 43.45458 -80.39823 2359 ft 129 kts 245°
2026-05-06 00:33 43.45069 -80.40923 2609 ft 127 kts 245°
2026-05-06 00:33 43.44678 -80.42022 2787 ft 129 kts 245°
2026-05-06 00:33 43.44284 -80.43123 2934 ft 129 kts 245°
2026-05-06 00:34 43.43886 -80.44233 3145 ft 129 kts 245°
2026-05-06 00:34 43.43477 -80.45358 3378 ft 129 kts 246°
2026-05-06 00:34 43.43194 -80.46479 3580 ft 127 kts 273°
2026-05-06 00:34 43.43668 -80.47532 3878 ft 133 kts 319°
2026-05-06 00:35 43.44536 -80.48074 4005 ft 153 kts 353°
2026-05-06 00:35 43.45598 -80.47605 4016 ft 172 kts 35°
2026-05-06 00:35 43.46351 -80.46302 4020 ft 180 kts 53°
2026-05-06 00:35 43.47111 -80.44893 4022 ft 182 kts 48°
2026-05-06 00:36 43.47910 -80.43532 4020 ft 183 kts 48°
2026-05-06 00:36 43.48718 -80.42162 4015 ft 184 kts 47°
2026-05-06 00:36 43.49510 -80.40826 4021 ft 184 kts 47°
2026-05-06 00:36 43.50318 -80.39454 4014 ft 184 kts 47°
2026-05-06 00:37 43.51129 -80.38086 4015 ft 184 kts 48°
2026-05-06 00:37 43.51929 -80.36728 4015 ft 184 kts 47°
2026-05-06 00:37 43.52733 -80.35370 4013 ft 183 kts 48°
2026-05-06 00:37 43.53535 -80.34006 4014 ft 183 kts 48°
2026-05-06 00:38 43.54346 -80.32633 4013 ft 183 kts 47°
2026-05-06 00:38 43.55154 -80.31261 4015 ft 183 kts 48°
2026-05-06 00:38 43.55944 -80.29918 4013 ft 183 kts 47°
2026-05-06 00:38 43.56745 -80.28558 3978 ft 185 kts 48°
2026-05-06 00:39 43.57567 -80.27145 3721 ft 181 kts 49°
2026-05-06 00:39 43.58331 -80.25845 3517 ft 173 kts 48°
2026-05-06 00:39 43.58942 -80.24456 3293 ft 171 kts 71°
2026-05-06 00:39 43.59080 -80.22831 3078 ft 170 kts 94°
2026-05-06 00:40 43.58740 -80.21318 3011 ft 161 kts 118°
2026-05-06 00:40 43.58068 -80.20173 3004 ft 154 kts 141°
2026-05-06 00:40 43.57149 -80.19441 3002 ft 149 kts 159°
2026-05-06 00:40 43.56207 -80.18847 3003 ft 148 kts 156°
2026-05-06 00:41 43.55259 -80.18239 3002 ft 148 kts 157°
2026-05-06 00:41 43.54299 -80.17817 3003 ft 145 kts 180°
2026-05-06 00:41 43.53335 -80.18093 3001 ft 142 kts 207°
2026-05-06 00:41 43.52592 -80.18951 2982 ft 140 kts 238°
2026-05-06 00:42 43.52158 -80.20177 2915 ft 143 kts 245°
2026-05-06 00:42 43.51724 -80.21394 2829 ft 144 kts 246°
2026-05-06 00:42 43.51285 -80.22665 2735 ft 146 kts 246°
2026-05-06 00:42 43.50857 -80.23957 2630 ft 147 kts 247°
2026-05-06 00:43 43.50422 -80.25232 2531 ft 148 kts 247°
2026-05-06 00:43 43.50004 -80.26498 2435 ft 148 kts 246°
2026-05-06 00:43 43.49573 -80.27757 2335 ft 147 kts 246°
2026-05-06 00:43 43.49147 -80.29042 2305 ft 144 kts 246°
2026-05-06 00:44 43.48710 -80.30329 2120 ft 149 kts 247°
2026-05-06 00:44 43.48296 -80.31582 1900 ft 138 kts 246°
2026-05-06 00:44 43.47919 -80.32677 1724 ft 118 kts 246°
2026-05-06 00:44 43.47590 -80.33661 1560 ft 111 kts 246°
2026-05-06 00:45 43.47277 -80.34597 1421 ft 97 kts 245°
2026-05-06 00:45 43.47009 -80.35374 1291 ft 85 kts 246°
2026-05-06 00:45 43.46769 -80.36080 1185 ft 80 kts 245°
2026-05-06 00:45 43.46531 -80.36792 1063 ft 81 kts 248°
2026-05-06 00:46 43.46337 -80.37380 1049 ft 56 kts 247°
2026-05-06 00:46 43.46229 -80.37689 1046 ft 22 kts 244°
2026-05-06 00:46 43.46182 -80.37714 1045 ft 7 kts 142°
2026-05-06 00:46 43.46140 -80.37687 1046 ft 7 kts 189°
2026-05-06 00:47 43.46089 -80.37714 1046 ft 10 kts 204°
2026-05-06 00:47 43.46033 -80.37781 1044 ft 12 kts 247°
2026-05-06 00:47 43.45996 -80.37902 1042 ft 15 kts 244°
2026-05-06 00:47 43.45945 -80.38037 1040 ft 17 kts 243°
2026-05-06 00:48 43.45898 -80.38190 1038 ft 18 kts 246°
2026-05-06 00:48 43.45842 -80.38356 1036 ft 20 kts 242°
2026-05-06 00:48 43.45778 -80.38529 1036 ft 21 kts 245°
2026-05-06 00:48 43.45721 -80.38703 1035 ft 15 kts 230°